| time (UTC) | temp C | wind direction | speed KPH | gust KPH | rain 1hr cm | rain 24hr cm | rain mn cm | humidity % | barometer mb |
| 20260901224605 | 23 | 360 | 14.5 | 25.7 | 0.00 | 0.00 | 0.00 | 72 | 1015.0 |
| 20260901223056 | 23 | 263 | 16.1 | 27.4 | 0.00 | 0.00 | 0.00 | 72 | 1015.2 |
| 20260901221601 | 23 | 253 | 16.1 | 22.5 | 0.00 | 0.00 | 0.00 | 73 | 1015.2 |
| 20260901220100 | 23 | 244 | 12.9 | 25.7 | 0.00 | 0.00 | 0.00 | 71 | 1015.4 |
| 20260901214603 | 23 | 276 | 14.5 | 25.7 | 0.00 | 0.00 | 0.00 | 71 | 1015.5 |
| 20260901213059 | 23 | 360 | 11.3 | 22.5 | 0.00 | 0.00 | 0.00 | 71 | 1015.7 |
| 20260901211600 | 23 | 258 | 14.5 | 27.4 | 0.00 | 0.00 | 0.00 | 71 | 1015.8 |
| 20260901210127 | 24 | 275 | 11.3 | 24.1 | 0.00 | 0.00 | 0.00 | 70 | 1015.8 |
| 20260901204554 | 25 | 360 | 9.7 | 24.1 | 0.00 | 0.00 | 0.00 | 69 | 1015.8 |
| 20260901203052 | 24 | 273 | 9.7 | 24.1 | 0.00 | 0.00 | 0.00 | 69 | 1015.8 |
| 20260901201601 | 24 | 274 | 11.3 | 22.5 | 0.00 | 0.00 | 0.00 | 69 | 1015.8 |
| 20260901200052 | 24 | 262 | 9.7 | 22.5 | 0.00 | 0.00 | 0.00 | 70 | 1016.0 |
| 20260901194606 | 23 | 360 | 12.9 | 22.5 | 0.00 | 0.00 | 0.00 | 70 | 1016.1 |
| 20260901193105 | 24 | 259 | 11.3 | 24.1 | 0.00 | 0.00 | 0.00 | 68 | 1016.2 |
| 20260901191615 | 24 | 247 | 9.7 | 17.7 | 0.00 | 0.00 | 0.00 | 68 | 1016.2 |
| 20260901190134 | 24 | 285 | 8.0 | 20.9 | 0.00 | 0.00 | 0.00 | 71 | 1016.2 |
| 20260901184556 | 24 | 247 | 9.7 | 17.7 | 0.00 | 0.00 | 0.00 | 70 | 1016.3 |
| 20260901183059 | 24 | 307 | 6.4 | 17.7 | 0.00 | 0.00 | 0.00 | 68 | 1016.4 |
| 20260901181600 | 24 | 268 | 9.7 | 19.3 | 0.00 | 0.00 | 0.00 | 70 | 1016.5 |
| 20260901174557 | 24 | 269 | 8.0 | 17.7 | 0.00 | 0.00 | 0.00 | 68 | 1016.4 |
| 20260901173055 | 24 | 276 | 4.8 | 12.9 | 0.00 | 0.00 | 0.00 | 67 | 1016.3 |
| 20260901171633 | 24 | 291 | 4.8 | 12.9 | 0.00 | 0.00 | 0.00 | 68 | 1016.2 |
| 20260901170105 | 24 | 232 | 3.2 | 12.9 | 0.00 | 0.00 | 0.00 | 68 | 1016.2 |
| 20260901164612 | 25 | 298 | 1.6 | 6.4 | 0.00 | 0.00 | 0.00 | 66 | 1016.1 |
| 20260901163117 | 24 | 236 | 3.2 | 8.0 | 0.00 | 0.00 | 0.00 | 69 | 1016.2 |
| 20260901161603 | 23 | 304 | 3.2 | 8.0 | 0.00 | 0.00 | 0.00 | 72 | 1016.1 |
| 20260901160056 | 22 | 335 | 3.2 | 9.7 | 0.00 | 0.00 | 0.00 | 76 | 1016.0 |
| 20260901154558 | 21 | 291 | 3.2 | 8.0 | 0.00 | 0.00 | 0.00 | 75 | 1016.0 |
| 20260901153057 | 22 | 321 | 4.8 | 12.9 | 0.00 | 0.00 | 0.00 | 75 | 1015.9 |
| 20260901151601 | 22 | 0 | 1.6 | 6.4 | 0.00 | 0.00 | 0.00 | 74 | 1015.8 |
| 20260901144556 | 22 | 29 | 3.2 | 6.4 | 0.00 | 0.00 | 0.00 | 75 | 1015.6 |
| 20260901143057 | 21 | 0 | 1.6 | 4.8 | 0.00 | 0.00 | 0.00 | 78 | 1015.7 |
| 20260901141601 | 20 | 42 | 0.0 | 4.8 | 0.00 | 0.00 | 0.00 | 82 | 1015.7 |
| 20260901134602 | 18 | 38 | 1.6 | 3.2 | 0.00 | 0.00 | 0.00 | 85 | 1015.4 |
| 20260901133104 | 18 | 38 | 0.0 | 3.2 | 0.00 | 0.00 | 0.00 | 85 | 1015.2 |
| 20260901131556 | 18 | 37 | 1.6 | 6.4 | 0.00 | 0.00 | 0.00 | 85 | 1015.0 |
| 20260901130101 | 18 | 5 | 3.2 | 6.4 | 0.00 | 0.00 | 0.00 | 85 | 1014.8 |
| 20260901124554 | 18 | 327 | 1.6 | 4.8 | 0.00 | 0.00 | 0.00 | 85 | 1014.6 |
| 20260901123103 | 18 | 327 | 0.0 | 4.8 | 0.00 | 0.00 | 0.00 | 85 | 1014.5 |
| 20260901121558 | 18 | 327 | 1.6 | 6.4 | 0.00 | 0.00 | 0.00 | 84 | 1014.6 |
| 20260901120057 | 18 | 0 | 0.0 | 4.8 | 0.00 | 0.00 | 0.00 | 84 | 1014.5 |
| 20260901114554 | 18 | 307 | 0.0 | 3.2 | 0.00 | 0.00 | 0.00 | 84 | 1014.6 |
| 20260901113104 | 18 | 0 | 0.0 | 4.8 | 0.00 | 0.00 | 0.00 | 83 | 1014.6 |
| 20260901111608 | 19 | 306 | 0.0 | 6.4 | 0.00 | 0.00 | 0.00 | 83 | 1014.6 |
| 20260901104603 | 20 | 5 | 1.6 | 4.8 | 0.00 | 0.00 | 0.00 | 84 | 1014.8 |
| 20260901103057 | 20 | 27 | 0.0 | 4.8 | 0.00 | 0.00 | 0.00 | 84 | 1014.8 |
| 20260901101600 | 20 | 0 | 0.0 | 3.2 | 0.00 | 0.00 | 0.00 | 86 | 1015.0 |
| 20260901094600 | 20 | 30 | 0.0 | 3.2 | 0.00 | 0.00 | 0.00 | 86 | 1015.0 |
| 20260901093101 | 20 | 0 | 0.0 | 4.8 | 0.00 | 0.00 | 0.00 | 86 | 1015.0 |
| 20260901091604 | 20 | 32 | 1.6 | 4.8 | 0.00 | 0.00 | 0.00 | 86 | 1014.6 |
| 20260901090114 | 20 | 33 | 0.0 | 4.8 | 0.00 | 0.00 | 0.00 | 86 | 1014.8 |
| 20260901084557 | 20 | 36 | 1.6 | 4.8 | 0.00 | 0.00 | 0.00 | 86 | 1014.7 |
| 20260901083058 | 20 | 113 | 0.0 | 4.8 | 0.00 | 0.00 | 0.00 | 86 | 1015.0 |
| 20260901081605 | 20 | 0 | 0.0 | 0.0 | 0.00 | 0.00 | 0.00 | 86 | 1014.9 |
| 20260901080114 | 20 | 0 | 0.0 | 0.0 | 0.00 | 0.00 | 0.00 | 85 | 1014.9 |
| 20260901074559 | 20 | 0 | 0.0 | 0.0 | 0.00 | 0.00 | 0.00 | 85 | 1014.9 |
| 20260901073059 | 20 | 0 | 0.0 | 1.6 | 0.00 | 0.00 | 0.00 | 85 | 1015.0 |
| 20260901071605 | 20 | 155 | 0.0 | 3.2 | 0.00 | 0.00 | 0.00 | 85 | 1015.0 |
| 20260901070105 | 20 | 155 | 1.6 | 4.8 | 0.00 | 0.00 | 0.00 | 85 | 1015.0 |
| 20260901064620 | 20 | 155 | 1.6 | 4.8 | 0.00 | 0.00 | 0.00 | 85 | 1015.0 |
| 20260901063119 | 20 | 156 | 3.2 | 4.8 | 0.00 | 0.00 | 0.00 | 85 | 1014.8 |
| 20260901061604 | 20 | 157 | 1.6 | 4.8 | 0.00 | 0.00 | 0.00 | 85 | 1014.8 |
| 20260901060104 | 20 | 157 | 1.6 | 4.8 | 0.00 | 0.00 | 0.00 | 85 | 1014.8 |
| 20260901054555 | 20 | 0 | 0.0 | 0.0 | 0.00 | 0.00 | 0.00 | 86 | 1014.8 |
| 20260901053102 | 20 | 0 | 0.0 | 0.0 | 0.00 | 0.00 | 0.00 | 86 | 1014.7 |
| 20260901051600 | 20 | 0 | 0.0 | 0.0 | 0.00 | 0.00 | 0.00 | 85 | 1014.6 |
| 20260901050058 | 20 | 0 | 0.0 | 3.2 | 0.00 | 0.00 | 0.00 | 85 | 1014.6 |
| 20260901044558 | 20 | 0 | 0.0 | 3.2 | 0.00 | 0.00 | 0.00 | 85 | 1014.6 |
| 20260901043103 | 20 | 157 | 0.0 | 8.0 | 0.00 | 0.00 | 0.00 | 85 | 1014.5 |
| 20260901041557 | 20 | 158 | 1.6 | 8.0 | 0.00 | 0.00 | 0.00 | 85 | 1014.4 |
| 20260901040104 | 20 | 161 | 3.2 | 6.4 | 0.00 | 0.00 | 0.00 | 84 | 1014.4 |
| 20260901034559 | 20 | 190 | 3.2 | 6.4 | 0.00 | 0.00 | 0.00 | 84 | 1014.3 |
| 20260901033056 | 20 | 232 | 1.6 | 4.8 | 0.00 | 0.00 | 0.00 | 84 | 1014.1 |
| 20260901031602 | 20 | 0 | 0.0 | 0.0 | 0.00 | 0.00 | 0.00 | 83 | 1013.7 |
| 20260901030101 | 20 | 0 | 0.0 | 4.8 | 0.00 | 0.00 | 0.00 | 82 | 1013.7 |
| 20260901024602 | 21 | 238 | 0.0 | 6.4 | 0.00 | 0.00 | 0.00 | 81 | 1013.4 |
| 20260901023103 | 21 | 243 | 0.0 | 11.3 | 0.00 | 0.00 | 0.00 | 80 | 1013.3 |
| 20260901021602 | 21 | 250 | 1.6 | 9.7 | 0.00 | 0.00 | 0.00 | 79 | 1013.2 |
| 20260901020059 | 22 | 253 | 3.2 | 9.7 | 0.00 | 0.00 | 0.00 | 79 | 1013.0 |
| 20260901014555 | 22 | 268 | 4.8 | 12.9 | 0.00 | 0.00 | 0.00 | 78 | 1012.8 |
| 20260901013109 | 22 | 360 | 3.2 | 14.5 | 0.00 | 0.00 | 0.00 | 77 | 1013.0 |
| 20260901011556 | 23 | 255 | 4.8 | 14.5 | 0.00 | 0.00 | 0.00 | 75 | 1013.0 |
| 20260901010106 | 23 | 258 | 4.8 | 14.5 | 0.00 | 0.00 | 0.00 | 71 | 1013.1 |
| 20260901004611 | 23 | 360 | 9.7 | 17.7 | 0.00 | 0.00 | 0.00 | 72 | 1013.3 |
| 20260901003108 | 24 | 240 | 6.4 | 16.1 | 0.00 | 0.00 | 0.00 | 72 | 1013.4 |
| 20260901001609 | 23 | 252 | 9.7 | 19.3 | 0.00 | 0.00 | 0.00 | 73 | 1013.4 |
| 20260901000057 | 24 | 283 | 8.0 | 17.7 | 0.00 | 0.00 | 0.00 | 74 | 1013.4 |
| 20260831234602 | 24 | 245 | 8.0 | 19.3 | 0.00 | 0.00 | 0.00 | 73 | 1013.6 |
| 20260831233058 | 25 | 219 | 6.4 | 19.3 | 0.00 | 0.00 | 0.00 | 72 | 1013.5 |
| 20260831231615 | 24 | 252 | 9.7 | 19.3 | 0.00 | 0.00 | 0.00 | 73 | 1013.4 |
| 20260831230113 | 25 | 292 | 9.7 | 20.9 | 0.00 | 0.00 | 0.00 | 73 | 1013.6 |